Rochester/St. Mary\'s Hospita, MN

4:32 PM CST on December 12, 2019 (GMT -0600)
Rochester/St. Mary\'s Hospita

Weather History for K9MN - October, 2019

Change the Weather History Date:

Thursday, October 31, 2019

  Actual Average (KRST) Record (KRST)
Temperature  
Mean Temperature 28 °F -  
Max Temperature 34 °F 52 °F 78 °F (1950)
Min Temperature 22 °F 34 °F 15 °F (1993)
Degree Days  
Heating Degree Days 38    
Moisture  
Dew Point 18 °F    
Average Humidity 66    
Maximum Humidity 80    
Minimum Humidity 52    
Precipitation  
Precipitation 0.00 in - - ()
Sea Level Pressure  
Sea Level Pressure 30.07 in    
Wind  
Wind Speed 7 mph (WNW)    
Max Wind Speed 13 mph    
Max Gust Speed 18 mph    
Visibility 10 miles    
Events      
Averages and records for this station are not official NWS values.
T = Trace of Precipitation, MM = Missing Value Source: NWS Daily Summary

Daily Weather History Graph

Daily Weather History Graph

Search for Another Location

Airport or City:

Astronomy

Oct. 31, 2019 Rise Set
Actual Time 7:44 AM CDT 6:01 PM CDT
Civil Twilight 7:14 AM CDT 6:31 PM CDT
Nautical Twilight 6:40 AM CDT 7:05 PM CDT
Astronomical Twilight 6:07 AM CDT 7:39 PM CDT
Moon 11:39 AM CDT (10/31) 8:52 PM CDT (10/31)
Length of Visible Light 11h 16m
Length of Day
10h 16m
Waxing Crescent, 16% of the Moon is Illuminated
Oct 31
Waxing Crescent
Nov 4
First Quarter
Nov 12
Full
Nov 19
Last Quarter
Nov 26
New

Hourly Weather History & Observations

Time (CDT) Temp. Windchill Dew Point Humidity Pressure Visibility Wind Dir Wind Speed Gust Speed Precip Events Conditions
12:15 AM 27.1 °F 20.7 °F 17.2 °F 66% 30.14 in 10.0 mi NW 5.8 mph - N/A   Overcast
12:35 AM 26.6 °F 19.1 °F 17.1 °F 67% 30.14 in 10.0 mi NW 6.9 mph - N/A   Overcast
12:55 AM 26.6 °F 18.2 °F 17.2 °F 68% 30.14 in 10.0 mi NW 8.1 mph - N/A   Scattered Clouds
12:56 AM 26.6 °F 18.2 °F 17.2 °F 68% 30.14 in 10.0 mi NW 8.1 mph - N/A   Scattered Clouds
1:15 AM 25.7 °F 17.1 °F 17.2 °F 70% 30.14 in 10.0 mi NW 8.1 mph - N/A   Clear
1:16 AM 25.7 °F 17.1 °F 17.2 °F 70% 30.14 in 10.0 mi WNW 8.1 mph - N/A   Clear
1:35 AM 25.3 °F 16.7 °F 17.2 °F 71% 30.14 in 10.0 mi NW 8.1 mph - N/A   Clear
1:55 AM 25.3 °F 21.1 °F 17.4 °F 72% 30.13 in 10.0 mi NNW 3.5 mph - N/A   Clear
2:15 AM 25.3 °F 19.7 °F 18.0 °F 74% 30.12 in 10.0 mi NW 4.6 mph - N/A   Clear
2:16 AM 25.3 °F 21.1 °F 18.0 °F 74% 30.12 in 10.0 mi NW 3.5 mph - N/A   Clear
2:35 AM 24.6 °F 17.7 °F 17.6 °F 75% 30.12 in 10.0 mi NW 5.8 mph - N/A   Clear
2:36 AM 24.6 °F 17.7 °F 17.6 °F 75% 30.12 in 10.0 mi WNW 5.8 mph - N/A   Clear
3:15 AM 23.5 °F 14.5 °F 17.4 °F 77% 30.11 in 10.0 mi NW 8.1 mph - N/A   Clear
3:35 AM 23.2 °F 16.0 °F 17.4 °F 79% 30.11 in 10.0 mi WNW 5.8 mph - N/A   Clear
3:55 AM 23.0 °F 14.7 °F 17.2 °F 79% 30.10 in 10.0 mi NW 6.9 mph - N/A   Clear
4:15 AM 22.8 °F 15.5 °F 17.1 °F 79% 30.10 in 10.0 mi NW 5.8 mph - N/A   Clear
4:35 AM 22.6 °F 14.3 °F 17.1 °F 79% 30.10 in 10.0 mi NW 6.9 mph - N/A   Scattered Clouds
4:55 AM 23.0 °F 13.9 °F 17.6 °F 80% 30.09 in 10.0 mi WNW 8.1 mph - N/A   Overcast
4:56 AM 23.0 °F 13.9 °F 17.6 °F 80% 30.09 in 10.0 mi WNW 8.1 mph - N/A   Overcast
5:15 AM 23.4 °F 15.2 °F 17.6 °F 79% 30.09 in 10.0 mi WNW 6.9 mph - N/A   Overcast
5:16 AM 23.4 °F 15.2 °F 17.6 °F 79% 30.09 in 10.0 mi WNW 6.9 mph - N/A   Overcast
5:35 AM 23.7 °F 15.6 °F 17.8 °F 78% 30.09 in 10.0 mi WNW 6.9 mph - N/A   Overcast
5:55 AM 23.9 °F 14.2 °F 17.6 °F 77% 30.09 in 10.0 mi NW 9.2 mph - N/A   Overcast
6:15 AM 24.1 °F 16.0 °F 17.6 °F 76% 30.09 in 10.0 mi NW 6.9 mph - N/A   Overcast
6:16 AM 24.3 °F 15.4 °F 17.6 °F 76% 30.09 in 10.0 mi NW 8.1 mph - N/A   Overcast
6:35 AM 24.6 °F 17.7 °F 18.1 °F 76% 30.09 in 10.0 mi NW 5.8 mph - N/A   Overcast
6:36 AM 24.6 °F 16.7 °F 18.1 °F 76% 30.09 in 10.0 mi NW 6.9 mph - N/A   Overcast
6:55 AM 24.8 °F 16.1 °F 17.4 °F 74% 30.09 in 10.0 mi NW 8.1 mph - N/A   Overcast
7:15 AM 25.2 °F 16.5 °F 17.1 °F 71% 30.09 in 10.0 mi NW 8.1 mph - N/A   Overcast
7:35 AM 25.5 °F 16.9 °F 16.9 °F 70% 30.08 in 10.0 mi NW 8.1 mph - N/A   Overcast
7:36 AM 25.5 °F 17.8 °F 16.9 °F 70% 30.08 in 10.0 mi WNW 6.9 mph - N/A   Overcast
7:55 AM 25.5 °F 18.7 °F 16.9 °F 70% 30.08 in 10.0 mi NW 5.8 mph - N/A   Overcast
7:56 AM 25.7 °F 18.0 °F 16.9 °F 69% 30.08 in 10.0 mi NW 6.9 mph - N/A   Overcast
8:15 AM 25.3 °F 16.0 °F 15.8 °F 67% 30.08 in 10.0 mi NW 9.2 mph - N/A   Overcast
8:35 AM 25.5 °F 15.5 °F 15.8 °F 67% 30.08 in 10.0 mi NW 10.4 mph - N/A   Overcast
8:55 AM 25.5 °F 15.5 °F 16.0 °F 67% 30.08 in 10.0 mi NW 10.4 mph - N/A   Overcast
8:56 AM 25.7 °F 17.1 °F 16.0 °F 67% 30.08 in 10.0 mi NW 8.1 mph - N/A   Overcast
9:15 AM 25.5 °F 15.5 °F 15.8 °F 67% 30.08 in 10.0 mi NW 10.4 mph - N/A   Overcast
9:35 AM 25.7 °F 16.4 °F 16.2 °F 67% 30.08 in 10.0 mi NW 9.2 mph 16.1 mph N/A   Overcast
9:55 AM 25.5 °F 15.5 °F 15.8 °F 67% 30.08 in 10.0 mi NW 10.4 mph 18.4 mph N/A   Overcast
10:15 AM 25.7 °F 16.4 °F 15.6 °F 66% 30.08 in 10.0 mi NNW 9.2 mph 17.3 mph N/A   Overcast
10:16 AM 25.7 °F 17.1 °F 15.6 °F 66% 30.08 in 10.0 mi NNW 8.1 mph 17.3 mph N/A   Overcast
10:35 AM 26.1 °F 16.8 °F 15.6 °F 65% 30.08 in 10.0 mi NNW 9.2 mph - N/A   Overcast
10:55 AM 25.9 °F 16.6 °F 15.6 °F 65% 30.08 in 10.0 mi NNW 9.2 mph - N/A   Overcast
11:15 AM 26.6 °F 16.8 °F 16.0 °F 64% 30.08 in 10.0 mi NW 10.4 mph - N/A   Overcast
11:35 AM 26.6 °F 19.1 °F 15.8 °F 64% 30.08 in 10.0 mi NNW 6.9 mph 17.3 mph N/A   Overcast
11:55 AM 27.3 °F 19.1 °F 16.3 °F 63% 30.07 in 10.0 mi NNW 8.1 mph - N/A   Overcast
12:15 PM 27.1 °F 20.7 °F 16.2 °F 63% 30.07 in 10.0 mi NW 5.8 mph - N/A   Overcast
12:36 PM 27.9 °F 22.6 °F 17.6 °F 65% 30.06 in 10.0 mi NW 4.6 mph - N/A   Overcast
12:55 PM 28.6 °F 20.7 °F 17.4 °F 63% 30.05 in 10.0 mi West 8.1 mph - N/A   Overcast
12:56 PM 28.8 °F 19.5 °F 17.6 °F 63% 30.05 in 10.0 mi West 10.4 mph - N/A   Overcast
1:15 PM 28.4 °F 18.0 °F 16.2 °F 60% 30.05 in 10.0 mi WNW 12.7 mph 18.4 mph N/A   Overcast
1:16 PM 28.4 °F 18.0 °F 16.2 °F 60% 30.05 in 10.0 mi WNW 12.7 mph 18.4 mph N/A   Overcast
1:35 PM 30.0 °F 22.4 °F 16.7 °F 58% 30.05 in 10.0 mi NW 8.1 mph - N/A   Mostly Cloudy
1:55 PM 30.6 °F 22.4 °F 16.7 °F 56% 30.04 in 10.0 mi NW 9.2 mph - N/A   Mostly Cloudy
2:15 PM 31.5 °F 24.9 °F 17.2 °F 56% 30.04 in 10.0 mi NW 6.9 mph - N/A   Scattered Clouds
2:16 PM 31.5 °F 25.8 °F 17.1 °F 55% 30.04 in 10.0 mi NW 5.8 mph - N/A   Scattered Clouds
2:36 PM 32.0 °F 26.4 °F 17.4 °F 55% 30.03 in 10.0 mi WNW 5.8 mph 16.1 mph N/A   Scattered Clouds
2:55 PM 32.7 °F 24.5 °F 17.6 °F 54% 30.03 in 10.0 mi West 10.4 mph 17.3 mph N/A   Clear
3:15 PM 32.9 °F 27.5 °F 17.8 °F 54% 30.02 in 10.0 mi West 5.8 mph - N/A   Clear
3:36 PM 33.6 °F 26.8 °F 17.6 °F 52% 30.02 in 10.0 mi West 8.1 mph 16.1 mph N/A   Clear
3:55 PM 33.3 °F 26.4 °F 17.2 °F 52% 30.03 in 10.0 mi WNW 8.1 mph 16.1 mph N/A   Clear
3:56 PM 33.1 °F 26.9 °F 17.2 °F 52% 30.03 in 10.0 mi NW 6.9 mph 16.1 mph N/A   Clear
4:15 PM 33.6 °F 25.6 °F 18.1 °F 53% 30.03 in 10.0 mi West 10.4 mph - N/A   Clear
4:35 PM 33.8 °F 27.7 °F 17.8 °F 52% 30.03 in 10.0 mi West 6.9 mph - N/A   Clear
4:55 PM 33.8 °F 27.0 °F 18.3 °F 53% 30.03 in 10.0 mi WSW 8.1 mph 16.1 mph N/A   Clear
4:56 PM 33.8 °F 27.7 °F 18.1 °F 53% 30.03 in 10.0 mi WSW 6.9 mph 16.1 mph N/A   Clear
5:15 PM 33.1 °F 25.5 °F 18.0 °F 54% 30.03 in 10.0 mi West 9.2 mph - N/A   Clear
5:16 PM 33.1 °F 26.1 °F 18.0 °F 54% 30.03 in 10.0 mi West 8.1 mph - N/A   Clear
5:35 PM 33.1 °F 25.5 °F 18.5 °F 55% 30.03 in 10.0 mi West 9.2 mph - N/A   Clear
5:36 PM 33.1 °F 25.5 °F 18.5 °F 55% 30.03 in 10.0 mi West 9.2 mph - N/A   Clear
5:55 PM 32.5 °F 26.2 °F 18.9 °F 57% 30.03 in 10.0 mi West 6.9 mph - N/A   Clear
6:15 PM 32.0 °F 26.4 °F 18.9 °F 58% 30.03 in 10.0 mi West 5.8 mph - N/A   Clear
6:35 PM 32.0 °F 25.6 °F 19.0 °F 59% 30.04 in 10.0 mi WSW 6.9 mph - N/A   Clear
6:36 PM 32.0 °F 25.6 °F 19.0 °F 59% 30.04 in 10.0 mi WSW 6.9 mph - N/A   Clear
6:55 PM 31.5 °F 24.9 °F 19.2 °F 61% 30.04 in 10.0 mi WSW 6.9 mph - N/A   Clear
6:56 PM 31.5 °F 25.8 °F 19.0 °F 60% 30.04 in 10.0 mi WSW 5.8 mph - N/A   Clear
7:15 PM 31.5 °F 26.8 °F 19.6 °F 62% 30.04 in 10.0 mi WSW 4.6 mph - N/A   Clear
7:35 PM 31.8 °F 25.4 °F 20.1 °F 62% 30.05 in 10.0 mi SW 6.9 mph - N/A   Clear
7:55 PM 31.5 °F 24.9 °F 20.1 °F 63% 30.05 in 10.0 mi SW 6.9 mph - N/A   Clear
7:56 PM 31.5 °F 25.8 °F 20.1 °F 63% 30.05 in 10.0 mi SW 5.8 mph - N/A   Clear
8:15 PM 30.6 °F 23.8 °F 19.8 °F 64% 30.05 in 10.0 mi SSW 6.9 mph - N/A   Clear
8:16 PM 30.4 °F 24.5 °F 19.6 °F 64% 30.05 in 10.0 mi SSW 5.8 mph - N/A   Clear
8:35 PM 29.8 °F 23.9 °F 19.6 °F 66% 30.05 in 10.0 mi SSW 5.8 mph - N/A   Clear
8:55 PM 29.3 °F 22.3 °F 19.4 °F 67% 30.05 in 10.0 mi SSW 6.9 mph - N/A   Clear
9:15 PM 29.7 °F 23.7 °F 19.8 °F 67% 30.05 in 10.0 mi SSW 5.8 mph - N/A   Clear
9:16 PM 29.7 °F 23.7 °F 19.8 °F 67% 30.04 in 10.0 mi SSW 5.8 mph - N/A   Clear
9:35 PM 28.9 °F 23.9 °F 19.6 °F 68% 30.04 in 10.0 mi South 4.6 mph - N/A   Clear
9:36 PM 28.8 °F 25.0 °F 19.4 °F 68% 30.04 in 10.0 mi South 3.5 mph - N/A   Clear
9:55 PM 28.2 °F 23.1 °F 19.8 °F 71% 30.04 in 10.0 mi South 4.6 mph - N/A   Clear
10:15 PM 28.4 °F 22.2 °F 20.3 °F 72% 30.05 in 10.0 mi SSW 5.8 mph - N/A   Clear
10:35 PM 28.6 °F 22.4 °F 20.3 °F 71% 30.05 in 10.0 mi South 5.8 mph - N/A   Clear
10:36 PM 28.8 °F 22.6 °F 20.3 °F 71% 30.05 in 10.0 mi South 5.8 mph - N/A   Clear
10:55 PM 28.8 °F 21.7 °F 19.8 °F 69% 30.05 in 10.0 mi South 6.9 mph - N/A   Clear
10:56 PM 28.8 °F 21.7 °F 19.8 °F 69% 30.05 in 10.0 mi South 6.9 mph - N/A   Clear
11:15 PM 28.9 °F 20.4 °F 19.8 °F 69% 30.04 in 10.0 mi South 9.2 mph - N/A   Clear
11:35 PM 28.4 °F 21.2 °F 19.8 °F 70% 30.03 in 10.0 mi South 6.9 mph - N/A   Clear
11:55 PM 28.4 °F 21.2 °F 19.6 °F 70% 30.02 in 10.0 mi South 6.9 mph - N/A   Clear